Terminal Aerodrome Forecast
Issued by NWS

Home | Current Version | Previous Version | Text Only | Print | Product List | Glossary On
Versions: 1 2 3 4 5 6 7 8 9 10 11 12 13 14 15 16 17 18 19 20 21 22 23 24 25 26 27 28 29 30 31 32 33 34 35
000
FTPA31 PHFO 232300
TAFITO
TAF
PHTO 232332Z 2400/2424 08010G14KT P6SM FEW030 SCT045
     FM240500 24005KT P6SM VCSH SCT025 BKN045
     FM242000 04008KT P6SM FEW030 SCT045=

USA.gov is the U.S. government's official web portal to all federal, state and local government web resources and services.